Home > Weather > Geneva > Past weeks

Flag for Switzerland Weather for the Past 2 Weeks in Geneva, Geneva, Switzerland

Now
50 °F

Sprinkles. Partly sunny.


Feels Like: 43 °F
Forecast: 33 / 40 °F
Wind: 22 mph from Southwest

Location: Geneva Cointrin Airport

Current Time: Feb 9, 2016 at 1:41:38 PM

Latest Report: Feb 9, 2016 at 12:50 PM


Visibility: N/A

Pressure: 29.59 "Hg

Humidity: 71%

Dew point: 41 °F

Location of GenevaLocation

Historic Weather in Geneva — Graph

°F

Geneva Temperature Yesterday

Maximum temperature yesterday: 54 °F (at 3:50 PM)
Minimum temperature yesterday: 34 °F (at 12:50 AM)
Average temperature yesterday: 45 °F

High & Low Weather Summary for the Past Weeks

 TemperatureHumidityPressure
High59 °F (Feb 1, 2:20 PM)100% (Jan 27, 5:50 AM)30.54 "Hg (Jan 27, 5:50 AM)
Low30 °F (Jan 26, 1:20 AM)44% (Feb 6, 11:50 PM)29.59 "Hg (Feb 9, 12:20 PM)
Average44 °F80%30.24 "Hg
* Reported Jan 25 12:20 PM — Feb 9 12:20 PM, Geneva, Weather by CustomWeather, © 2016

Note: Actual official high and low records may vary slightly from our data, if they occured in-between our weather recording intervals... More about our weather records

Advertising

Geneva Weather History for the Previous 24 Hours

 ConditionsComfort  
Time TempWeatherWind HumidityBarometerVisibility
12:20 PM
Tue, Feb 9
50 °FSprinkles. Broken clouds.12 mph71%29.59 "HgN/A
11:20 AM50 °FSprinkles. Overcast.10 mph71%29.65 "HgN/A
10:50 AM50 °FSprinkles. Overcast.14 mph67%29.65 "HgN/A
10:20 AM50 °FSprinkles. Partly sunny.12 mph71%29.68 "HgN/A
9:50 AM50 °FPartly sunny.12 mph71%29.71 "HgN/A
9:20 AM48 °FPartly sunny.9 mph76%29.71 "HgN/A
8:50 AM48 °FPartly sunny.9 mph76%29.74 "HgN/A
8:20 AM48 °FScattered showers. Overcast.9 mph76%29.74 "HgN/A
7:50 AM48 °FLight rain. Overcast.9 mph76%29.77 "HgN/A
6:50 AM46 °FLight rain. Overcast.8 mph82%29.77 "HgN/A
6:20 AM46 °FRain. Overcast.8 mph82%29.80 "HgN/A
5:50 AM48 °FRain. Overcast.14 mph76%29.83 "HgN/A
5:20 AM48 °FLight rain. Overcast.12 mph76%29.86 "HgN/A
4:50 AM46 °FLight rain. Overcast.7 mph82%29.89 "HgN/A
4:20 AM46 °FLight rain. Overcast.7 mph82%29.89 "HgN/A
3:50 AM48 °FLight rain. Overcast.9 mph76%29.92 "HgN/A
3:20 AM50 °FLight rain. Overcast.15 mph67%29.92 "HgN/A
2:50 AM50 °FPassing clouds.9 mph67%29.92 "HgN/A
1:50 AM50 °FPassing clouds.16 mph62%29.95 "HgN/A
1:20 AM52 °FPassing clouds.18 mph58%29.95 "HgN/A
12:50 AM52 °FPartly cloudy.17 mph54%29.95 "HgN/A
12:20 AM52 °FPassing clouds.20 mph62%29.98 "HgN/A
11:20 PM
Mon, Feb 8
50 °FRain showers. Passing clouds.9 mph71%29.95 "HgN/A
10:50 PM50 °FLight rain. Passing clouds.10 mph71%29.95 "Hg5 mi
10:20 PM48 °FSprinkles. Passing clouds.5 mph76%29.95 "HgN/A
9:50 PM50 °FPassing clouds.10 mph71%29.98 "HgN/A
9:20 PM48 °FPassing clouds.17 mph76%29.98 "HgN/A
8:50 PM50 °FSprinkles. Mostly cloudy.20 mph76%29.98 "HgN/A
8:20 PM50 °FScattered showers. Passing clouds.17 mph71%29.95 "HgN/A
7:50 PM48 °FScattered showers. Passing clouds.9 mph82%29.95 "HgN/A
7:20 PM48 °FSprinkles. Passing clouds.16 mph82%29.95 "HgN/A
6:50 PM50 °FSprinkles. Passing clouds.16 mph76%29.95 "HgN/A
6:20 PM50 °FSprinkles. Passing clouds.18 mph71%29.92 "HgN/A
5:50 PM52 °FScattered showers. Passing clouds.20 mph62%29.92 "HgN/A
5:20 PM52 °FSprinkles. Partly sunny.24 mph62%29.89 "HgN/A
4:50 PM52 °FSprinkles. Partly sunny.20 mph62%29.89 "HgN/A
4:20 PM52 °FSprinkles. Partly sunny.23 mph62%29.89 "HgN/A
3:50 PM54 °FScattered showers. Partly sunny.21 mph54%29.86 "HgN/A
3:20 PM52 °FSprinkles. Partly sunny.24 mph58%29.86 "HgN/A
2:50 PM50 °FPartly sunny.16 mph67%29.86 "HgN/A
2:20 PM50 °FSprinkles. Partly sunny.17 mph67%29.89 "HgN/A
1:50 PM52 °FScattered showers. Partly sunny.16 mph58%29.89 "HgN/A
1:20 PM52 °FPartly sunny.18 mph54%29.89 "HgN/A
Weather by CustomWeather, © 2016

See weather overviewHow to use our weather pages